Station LKWF1 - 8722670 - Lake Worth Pier, FL Image indicating link to RSS feed of recent meteorological observations for station LKWF1


Conditions at LKWF1 as of
(8:18 pm EDT on 05/20/2024)
0018 GMT on 05/21/2024:
     

Click on the graph icon in the table below to see a time series plot of the last five days of that observation.

5-day plot - Wind Direction Wind Direction (WDIR): N ( 10 deg true )
5-day plot - Wind Speed Wind Speed (WSPD): 18.1 kts
5-day plot - Wind Gust Wind Gust (GST): 22.9 kts
5-day plot - Atmospheric Pressure Atmospheric Pressure (PRES):29.85 in
5-day plot - Air Temperature Air Temperature (ATMP): 79.0 °F
5-day plot - Water Temperature Water Temperature (WTMP): 81.1 °F
5-day plot - Wind Speed at 10 Meters Wind Speed at 10 meters (WSPD10M): 17.5 kts
5-day plot - Wind Speed at 20 Meters Wind Speed at 20 meters (WSPD20M): 19.4 kts
5-day plot -  Wind Speed, Wind Gust and Atmospheric Pressure Combined plot of Wind Speed, Gust, and Air Pressure
NOS Water Level Observation Network Water Level
Previous observations
TIME
(EDT)
5-day plot - Wind Direction
WDIR
 
5-day plot - Wind Speed
WSPD
kts
5-day plot - Wind Gust
GST
kts
5-day plot - Wave Height
WVHT
ft
5-day plot - Dominant Wave Period
DPD
sec
5-day plot - Average Wave Period
APD
sec
5-day plot - Mean Wave Direction
MWD
 
5-day plot - Atmospheric Pressure
PRES
in
5-day plot - Pressure Tendency
PTDY
in
5-day plot - Air Temperature
ATMP
°F
5-day plot - Water Temperature
WTMP
°F
5-day plot - Dew Point
DEWP
°F
5-day plot - Salinity
SAL
psu
5-day plot - Visibility
VIS
nmi
5-day plot - Tide (above MLLW)
TIDE
ft
2024-05-20 08:12 pm N 18.1 22.0----29.85- 78.8 81.1----
2024-05-20 08:06 pm N 22.0 27.0----29.84- 78.4 81.1----
2024-05-20 08:00 pm N 22.9 25.1----29.84+0.02 79.0 81.1----
2024-05-20 07:54 pmNNE 19.0 21.0----29.84- 79.0 81.1----
2024-05-20 07:48 pm N 18.1 22.9----29.85- 77.2 81.1----
2024-05-20 07:42 pmNNE 20.0 25.1----29.84- 77.0 81.1----
2024-05-20 07:36 pmNNE 20.0 25.1----29.84- 76.8 81.1----
2024-05-20 07:30 pm N 20.0 22.9----29.85- 74.8 81.1----
2024-05-20 07:24 pm N 13.0 15.0----29.86- 73.8 81.1----
2024-05-20 07:18 pmNNW 6.0 14.0----29.87- 73.0 81.1----
2024-05-20 07:12 pm SW 9.9 12.0----29.89-- 81.1----
2024-05-20 07:06 pm W 8.9 20.0----29.90-- 81.1----
2024-05-20 07:00 pmWSW 17.1 22.9----29.90+0.06- 81.1----
2024-05-20 06:54 pm W 14.0 21.0----29.89-- 81.1----
2024-05-20 06:48 pmWNW 12.0 20.0----29.88-- 81.1----
2024-05-20 06:42 pm N 17.1 22.0----29.84-- 81.1----
2024-05-20 06:36 pm N 19.0 22.0----29.82-- 81.1----
2024-05-20 06:30 pmNNE 19.0 22.0----29.81- 80.4 81.3----
2024-05-20 06:24 pmNNE 19.0 22.0----29.82- 80.8 81.3----
2024-05-20 06:18 pmNNE 15.9 19.0----29.81- 81.3 81.3----
2024-05-20 06:12 pmENE 8.0 8.9----29.81- 84.4 81.1----
2024-05-20 06:06 pm E 5.1 6.0----29.81- 83.7 81.1----
2024-05-20 06:00 pm SE 6.0 7.0----29.81-0.06 83.7 81.1----
2024-05-20 05:54 pm SE 7.0 8.0----29.81- 83.7 81.1----
2024-05-20 05:48 pm SE 8.0 8.0----29.82- 83.8 81.1----
2024-05-20 05:42 pm S 7.0 8.9----29.83- 83.1 81.1----
2024-05-20 05:36 pm SE 7.0 8.9----29.82- 83.7 81.1----
2024-05-20 05:30 pm E 8.9 9.9----29.82- 84.2 81.1----
2024-05-20 05:24 pm E 8.9 11.1----29.82- 84.4 81.1----
2024-05-20 05:18 pm E 8.9 13.0----29.82- 84.7 81.1----
2024-05-20 05:12 pm E 9.9 12.0----29.82- 84.7 81.1----
2024-05-20 05:06 pm E 9.9 11.1----29.82- 84.9 81.1----
2024-05-20 05:00 pm E 12.0 12.0----29.82-0.06 84.0 81.0----
2024-05-20 04:54 pm E 11.1 13.0----29.82- 84.2 81.0----
2024-05-20 04:48 pm E 8.9 13.0----29.83- 83.7 81.0----
2024-05-20 04:42 pm E 8.0 11.1----29.83- 84.0 81.0----
2024-05-20 04:36 pm E 12.0 13.0----29.83- 83.7 81.0----
2024-05-20 04:30 pm E 11.1 13.0----29.83-------
2024-05-20 04:24 pm E 14.0 15.0----29.83-------
2024-05-20 04:18 pm E 9.9 12.0----29.83- 84.4 81.0----
2024-05-20 04:12 pmESE 11.1 12.0----29.83- 84.4 81.0----
2024-05-20 04:06 pm E 8.9 13.0----29.84- 84.2 81.0----
2024-05-20 04:00 pm E 8.9 15.9----29.84-0.04 84.7 81.0----
2024-05-20 03:54 pm E 9.9 12.0----29.85- 84.7 81.0----
2024-05-20 03:48 pm E 11.1 14.0----29.85- 85.5 80.8----
2024-05-20 03:42 pm E 5.1 8.9----29.86- 85.3 80.8----
2024-05-20 03:36 pm E 5.1 8.0----29.86- 85.6 80.8----
2024-05-20 03:30 pm NE 7.0 8.0----29.86- 86.4 80.8----
2024-05-20 03:24 pmWNW 5.1 11.1----29.86- 90.7 80.8----
2024-05-20 03:18 pm NW 7.0 11.1----29.86- 91.2 80.8----
2024-05-20 03:12 pmNNW 4.1 5.1----29.86- 90.7 80.6----
2024-05-20 03:06 pm NW 5.1 12.0----29.87- 90.3 80.6----
2024-05-20 03:00 pm NW 8.0 12.0----29.87-0.03 90.1 80.6----
2024-05-20 02:54 pm W 7.0 12.0----29.87- 90.1 80.6----
2024-05-20 02:48 pmWNW 7.0 11.1----29.88- 90.5 80.4----
2024-05-20 02:42 pm W 6.0 12.0----29.88- 90.1 80.4----
2024-05-20 02:36 pm W 8.0 12.0----29.88- 89.6 80.4----
2024-05-20 02:30 pm W 7.0 15.9----29.88- 90.0 80.4----
2024-05-20 02:24 pmWNW 8.9 12.0----29.88- 90.5 80.4----
2024-05-20 02:18 pmWNW 9.9 13.0----29.88- 90.5 80.4----
2024-05-20 02:12 pmWNW 8.9 15.0----29.88- 89.6 80.4----
2024-05-20 02:06 pmWSW 8.9 14.0----29.88- 89.4 80.4----
2024-05-20 02:00 pm W 8.0 15.9----29.88-0.03 88.9 80.4----
2024-05-20 01:54 pm W 9.9 17.1----29.88- 88.9 80.4----
2024-05-20 01:48 pm W 8.0 12.0----29.88- 88.9 80.4----
2024-05-20 01:42 pm W 9.9 15.9----29.88- 88.5 80.4----
2024-05-20 01:36 pm W 9.9 15.0----29.88- 88.0 80.2----
2024-05-20 01:30 pmWSW 11.1 15.0----29.88- 88.2 80.2----
2024-05-20 01:24 pm W 7.0 13.0----29.88- 88.2 80.4----
2024-05-20 01:18 pmWSW 9.9 19.0----29.88- 87.3 80.4----
2024-05-20 01:12 pmWSW 9.9 12.0----29.88- 87.3 80.4----
2024-05-20 01:06 pm W 8.0 11.1----29.88- 87.4 80.4----
2024-05-20 01:00 pmWSW 7.0 13.0----29.88-0.02 87.1 80.2----
2024-05-20 12:54 pm SW 7.0 13.0----29.89- 86.7 80.2----
2024-05-20 12:48 pmWSW 8.9 14.0----29.89- 86.7 80.2----
2024-05-20 12:42 pm SW 7.0 15.0----29.89- 86.5 80.2----
2024-05-20 12:36 pm W 8.9 14.0----29.89- 87.1 80.1----
2024-05-20 12:30 pm W 8.9 15.0----29.90- 87.1 80.1----
2024-05-20 12:24 pmWSW 6.0 12.0----29.90- 86.4 80.1----
2024-05-20 12:18 pmWSW 8.0 11.1----29.90- 86.5 80.1----
2024-05-20 12:12 pm W 7.0 14.0----29.90- 86.4 79.9----
2024-05-20 12:06 pmWSW 7.0 13.0----29.91- 86.0 79.9----
2024-05-20 12:00 pm W 8.0 12.0----29.91+0.00 86.4 79.9----
2024-05-20 11:54 am W 5.1 8.9----29.91- 86.2 79.7----
2024-05-20 11:48 am W 6.0 13.0----29.91- 86.2 79.7----
2024-05-20 11:42 amWSW 5.1 12.0----29.91- 85.5 79.7----
2024-05-20 11:36 amWSW 5.1 8.9----29.91- 85.5 79.5----
2024-05-20 11:30 am W 5.1 8.9----29.91- 85.5 79.5----
2024-05-20 11:24 am W 7.0 11.1----29.91- 84.9 79.5----
2024-05-20 11:18 am W 7.0 13.0----29.91- 84.9 79.5----
2024-05-20 11:12 am SW 7.0 9.9----29.91- 84.4 79.5----
2024-05-20 11:06 am W 6.0 8.9----29.92- 84.7 79.5----
2024-05-20 11:00 amWSW 9.9 14.0----29.92+0.02 84.2 79.7----
2024-05-20 10:54 am W 6.0 8.0----29.92- 83.8 79.7----
2024-05-20 10:48 am W 6.0 8.9----29.92- 84.2 79.9----
2024-05-20 10:42 amWNW 2.9 7.0----29.91- 84.6 79.9----
2024-05-20 10:36 am W 6.0 8.0----29.91- 83.5 79.9----
2024-05-20 10:30 am W 5.1 8.9----29.91- 83.7 79.9----
2024-05-20 10:24 amWSW 4.1 6.0----29.91- 83.8 79.9----
2024-05-20 10:18 am W 5.1 8.9----29.91- 83.7 79.9----
2024-05-20 10:12 am W 5.1 8.0----29.91- 83.3 79.9----
2024-05-20 10:06 amWSW 5.1 7.0----29.91- 82.8 79.9----
2024-05-20 10:00 am W 6.0 8.9----29.91+0.03 82.9 79.9----
2024-05-20 09:54 am W 6.0 8.9----29.91- 82.4 79.9----
2024-05-20 09:48 am W 6.0 9.9----29.91- 82.8 79.9----
2024-05-20 09:42 am W 6.0 8.9----29.90- 83.1 79.9----
2024-05-20 09:36 am W 7.0 8.9----29.91- 82.4 79.9----
2024-05-20 09:30 am W 5.1 9.9----29.90- 81.9 79.9----
2024-05-20 09:24 am W 6.0 8.0----29.91- 81.9 79.9----
2024-05-20 09:18 am W 6.0 8.0----29.91- 81.7 79.9----
2024-05-20 09:12 amWNW 5.1 8.9----29.90- 81.9 79.9----
2024-05-20 09:06 am W 6.0 9.9----29.90- 81.3 79.7----
2024-05-20 09:00 am W 5.1 8.0----29.90+0.05 81.1 79.7----
2024-05-20 08:54 am W 6.0 11.1----29.90- 81.0 79.7----
2024-05-20 08:48 am W 8.0 9.9----29.90- 80.4 79.7----
2024-05-20 08:42 am W 7.0 9.9----29.90- 80.4 79.7----
2024-05-20 08:36 am W 6.0 8.9----29.90- 80.4 79.7----
2024-05-20 08:30 am W 8.0 9.9----29.90- 80.1 79.7----
2024-05-20 08:24 am W 6.0 9.9----29.90- 80.1 79.7----
2024-05-20 08:18 amWSW 6.0 8.0----29.90- 79.9 79.7----
2024-05-20 08:12 amWSW 4.1 8.0----29.90- 79.7 79.7----
2024-05-20 08:06 am W 5.1 8.0----29.90- 79.3 79.7----
2024-05-20 08:00 am W 4.1 6.0----29.90+0.03 79.2 79.7----
2024-05-20 07:54 amWSW 6.0 8.0----29.90- 78.8 79.7----
2024-05-20 07:48 amWSW 6.0 8.0----29.90- 78.4 79.7----
2024-05-20 07:42 amWSW 5.1 7.0----29.89- 78.4 79.7----
2024-05-20 07:36 am SW 5.1 7.0----29.89- 78.3 79.7----
2024-05-20 07:30 am SW 5.1 5.1----29.89- 78.1 79.7----
2024-05-20 07:24 am SW 2.9 6.0----29.89- 78.1 79.7----
2024-05-20 07:18 amWSW 4.1 5.1----29.89- 77.9 79.9----
2024-05-20 07:12 am W 2.9 5.1----29.88- 77.7 79.9----
2024-05-20 07:06 am W 2.9 4.1----29.88- 77.7 79.9----
2024-05-20 07:00 am W 1.9 2.9----29.88+0.03 77.5 79.9----
2024-05-20 06:54 am SW 1.9 2.9----29.88- 77.4 79.9----
2024-05-20 06:48 am SW 1.9 5.1----29.88- 77.2 79.9----
2024-05-20 06:42 am SW 4.1 5.1----29.87- 77.0 79.9----
2024-05-20 06:36 am SW 4.1 5.1----29.87- 77.0 79.9----
2024-05-20 06:30 am W 1.9 4.1----29.86- 77.0 79.9----
2024-05-20 06:24 am W 2.9 5.1----29.86- 77.0 79.9----
2024-05-20 06:18 am W 4.1 5.1----29.86- 77.0 79.9----
2024-05-20 06:12 am W 4.1 6.0----29.85- 77.0 79.9----
2024-05-20 06:06 am W 4.1 6.0----29.85- 77.0 79.9----
2024-05-20 06:00 am W 1.9 5.1----29.85-0.02 77.2 79.9----
2024-05-20 05:54 am W 4.1 5.1----29.85- 77.2 79.9----
2024-05-20 05:48 am W 2.9 5.1----29.86- 77.4 79.9----
2024-05-20 05:42 amWSW 4.1 5.1----29.86- 77.4 79.9----
2024-05-20 05:36 am W 5.1 6.0----29.86- 77.4 79.9----
2024-05-20 05:30 am W 4.1 7.0----29.86- 77.5 79.9----
2024-05-20 05:24 am W 5.1 6.0----29.86- 77.5 79.9----
2024-05-20 05:18 am W 5.1 7.0----29.86- 77.5 79.9----
2024-05-20 05:12 amWSW 4.1 6.0----29.86- 77.7 79.9----
2024-05-20 05:06 amWSW 5.1 6.0----29.86- 77.9 79.9----
2024-05-20 05:00 am SW 5.1 7.0----29.86-0.03 77.9 79.9----
2024-05-20 04:54 amSSW 6.0 8.9----29.86- 77.9 79.9----
2024-05-20 04:48 amSSW 7.0 8.0----29.86- 78.1 79.9----
2024-05-20 04:42 amSSW 6.0 8.0----29.86- 78.1 79.9----
2024-05-20 04:36 amWSW 4.1 5.1----29.86- 78.3 79.9----
2024-05-20 04:30 am W 4.1 5.1----29.85- 78.3 79.9----
2024-05-20 04:24 am W 4.1 6.0----29.85- 78.3 79.9----
2024-05-20 04:18 am W 4.1 6.0----29.84- 78.3 79.9----
2024-05-20 04:12 am W 4.1 6.0----29.84- 78.6 80.1----
2024-05-20 04:06 amWSW 4.1 6.0----29.84- 78.8 80.1----
2024-05-20 04:00 am SW 5.1 7.0----29.84-0.07 78.8 80.1----
2024-05-20 03:54 am SW 5.1 6.0----29.85- 79.0 80.1----
2024-05-20 03:48 am SW 5.1 5.1----29.85- 79.0 80.1----
2024-05-20 03:42 am SW 4.1 5.1----29.85- 79.0 80.1----
2024-05-20 03:36 am SW 5.1 7.0----29.85- 79.0 80.1----
2024-05-20 03:30 am SW 5.1 6.0----29.85- 79.0 80.1----
2024-05-20 03:24 am SW 5.1 7.0----29.85- 79.0 80.1----
2024-05-20 03:18 am SW 5.1 7.0----29.86- 79.0 80.1----
2024-05-20 03:12 am SW 5.1 6.0----29.86- 79.0 80.1----
2024-05-20 03:06 am SW 5.1 6.0----29.87- 79.0 80.1----
2024-05-20 03:00 am SW 5.1 7.0----29.87-0.05 79.2 80.1----
2024-05-20 02:54 amWSW 5.1 7.0----29.87- 79.3 80.1----
2024-05-20 02:48 amWSW 6.0 7.0----29.88- 79.5 80.1----
2024-05-20 02:42 am SW 6.0 8.0----29.88- 79.7 80.1----
2024-05-20 02:36 am SW 6.0 7.0----29.88- 79.7 80.1----
2024-05-20 02:30 am SW 5.1 7.0----29.88- 79.7 80.1----
2024-05-20 02:24 am SW 5.1 6.0----29.88- 79.9 80.2----
2024-05-20 02:18 am SW 5.1 8.0----29.89- 80.2 80.2----
2024-05-20 02:12 am SW 7.0 8.9----29.89- 80.8 80.2----
2024-05-20 02:06 amSSW 7.0 8.9----29.89- 81.1 80.2----
2024-05-20 02:00 amSSW 7.0 8.9----29.89-0.02 81.1 80.2----
2024-05-20 01:54 amSSW 8.0 8.9----29.90- 81.0 80.4----
2024-05-20 01:48 amSSW 8.0 8.9----29.90- 81.0 80.4----
2024-05-20 01:42 amSSW 8.0 8.9----29.90- 80.8 80.4----
2024-05-20 01:36 am S 8.0 9.9----29.90- 80.8 80.4----
2024-05-20 01:30 am S 8.9 11.1----29.91- 80.8 80.4----
2024-05-20 01:24 am S 8.9 9.9----29.91- 80.8 80.4----
2024-05-20 01:18 am-------29.91-- 80.4----
2024-05-20 01:12 am-------29.91-- 80.6----
2024-05-20 01:06 am-------29.92-- 80.6----
2024-05-20 01:00 amSSW 7.0 8.0----29.92-0.01 81.0 80.6----
2024-05-20 12:54 am S 7.0 8.0----29.92- 80.8 80.6----
2024-05-20 12:48 am S 7.0 8.0----29.92- 81.0 80.6----
2024-05-20 12:42 am S 7.0 8.0----29.92- 80.8 80.6----
2024-05-20 12:36 am S 7.0 8.0----29.93- 80.8 80.6----
2024-05-20 12:30 am S 7.0 8.0----29.92- 80.4 80.6----
2024-05-20 12:24 am S 6.0 7.0----29.92- 80.6 80.6----
2024-05-20 12:18 amSSW 5.1 6.0----29.92- 80.2 80.6----
2024-05-20 12:12 am S 5.1 5.1----29.92- 80.4 80.6----
2024-05-20 12:06 am S 2.9 4.1----29.92- 80.2 80.6----
2024-05-20 12:00 am S 2.9 4.1----29.92+0.00 80.4 80.6----
2024-05-19 11:54 pm S 2.9 5.1----29.92- 80.2 80.6----
2024-05-19 11:48 pm S 4.1 5.1----29.92- 80.2 80.6----
2024-05-19 11:42 pm S 5.1 6.0----29.92- 80.4 80.6----
2024-05-19 11:36 pm S 6.0 7.0----29.92- 80.2 80.6----
2024-05-19 11:30 pm S 6.0 8.0----29.92- 80.2 80.8----
2024-05-19 11:24 pm S 8.0 8.9----29.92- 80.1 80.8----
2024-05-19 11:18 pm S 8.9 11.1----29.92-- 80.8----
2024-05-19 11:12 pm S 11.1 11.1----29.92-- 80.8----
2024-05-19 11:06 pm S 12.0 14.0----29.92-- 80.8----
2024-05-19 11:00 pmSSE 11.1 12.0----29.92+0.00 80.1 80.8----
2024-05-19 10:54 pmSSE 12.0 14.0----29.92- 79.9 80.8----
2024-05-19 10:48 pmSSE 8.9 9.9----29.93- 80.8 80.8----
2024-05-19 10:42 pm S 9.9 11.1----29.93- 80.4 80.8----
2024-05-19 10:36 pm S 8.0 8.9----29.93- 80.2 80.8----
2024-05-19 10:30 pm S 8.0 8.9----29.93- 80.1 80.8----
2024-05-19 10:24 pm S 7.0 8.0----29.93- 80.1 80.8----
2024-05-19 10:18 pmSSE 5.1 6.0----29.93- 80.1 80.8----
2024-05-19 10:12 pmSSE 5.1 7.0----29.93- 79.9 80.8----
2024-05-19 10:06 pmSSE 7.0 8.0----29.93- 79.7 80.8----
2024-05-19 10:00 pmSSE 8.0 9.9----29.93- 79.5 80.8----
2024-05-19 09:54 pm SE 6.0 8.0----29.93- 79.3 80.8----
2024-05-19 09:48 pm SE 8.0 8.0----29.93- 79.3 80.8----
2024-05-19 09:42 pm SE 4.1 5.1----29.93- 79.3 80.8----
2024-05-19 09:36 pm SE 5.1 6.0----29.93- 79.3 80.8----
2024-05-19 09:30 pm SE 5.1 5.1----29.93-- 80.8----
2024-05-19 09:24 pm SE 4.1 4.1----29.93-- 80.8----
2024-05-19 09:18 pmESE 2.9 5.1----29.93-- 80.8----
2024-05-19 09:12 pmSSE 4.1 5.1----29.93-- 80.8----
2024-05-19 09:06 pm SE 5.1 6.0----29.93-- 80.8----
2024-05-19 09:00 pmESE 6.0 7.0----29.92+0.03- 80.8----
2024-05-19 08:54 pmESE 7.0 8.0----29.91-- 80.8----
2024-05-19 08:48 pm E 6.0 7.0----29.92- 79.3 80.8----
2024-05-19 08:42 pm E 7.0 7.0----29.91- 79.2 80.8----
2024-05-19 08:36 pm E 5.1 8.0----29.91- 79.3 80.8----
2024-05-19 08:30 pmENE 5.1 8.0----29.92- 79.9 80.8----
2024-05-19 08:24 pm E 8.0 8.9----29.91- 79.3 80.8----
2024-05-19 08:18 pm---------- 80.8----
2024-05-19 08:12 pm---------- 80.8----
2024-05-19 08:06 pm---------- 81.0----
2024-05-19 08:00 pm E 8.0 9.9----29.92+0.05- 80.8----
2024-05-19 07:54 pm E 6.0 7.0----29.91-- 80.8----